View from above orbital plane
|
View from above satellite
|
Ground track
|
The orbit data is extracted from the following two-line orbital elements,
1 25860U 99039A 21021.83432069 .00000021 00000-0 10614-4 0 9991
2 25860 98.1988 50.4477 0000785 104.9455 255.1841 14.76706605157833
Epoch (UTC): | 21 January 2021 20:01:25 |
Eccentricity: | 0.0000785 |
inclination: | 98.1988° |
perigee height: | 639 km |
apogee height: | 640 km |
right ascension of ascending node: | 50.4477° |
argument of perigee: | 104.9455° |
revolutions per day: | 14.76706605 |
mean anomaly at epoch: | 255.1841° |
orbit number at epoch: | 15783 |
The dashed part of the orbit path shows where the satellite is in the earth's shadow,
|
|